Pula, Croatia

5:45 PM CET on February 19, 2017 (GMT +0100)
Pula

Weather History for LDPL - December, 2012

Change the Weather History Date:

Tuesday, December 4, 2012

  Actual Average Record
Temperature  
Mean Temperature 40 °F -  
Max Temperature 53 °F - - ()
Min Temperature 27 °F - - ()
Degree Days  
Heating Degree Days 25    
Moisture  
Dew Point 38 °F    
Average Humidity 76    
Maximum Humidity 94    
Minimum Humidity 50    
Precipitation  
Precipitation 0.03 in - - ()
Sea Level Pressure  
Sea Level Pressure 29.66 in    
Wind  
Wind Speed 6 mph ()    
Max Wind Speed 18 mph    
Max Gust Speed 22 mph    
Visibility 6.1 miles    
Events Rain    
T = Trace of Precipitation, MM = Missing Value Source: Averaged Metar Reports

Daily Weather History Graph

Daily Weather History Graph

Search for Another Location

Airport or City:

Trip Planner

Search our weather history database for the weather conditions in past years. The results will help you decide how hot, cold, wet, or windy it might be!

Date:

Astronomy

Dec. 04, 2012 Rise Set
Actual Time 7:25 AM CET 4:23 PM CET
Civil Twilight 6:52 AM CET 4:56 PM CET
Nautical Twilight 6:15 AM CET 5:33 PM CET
Astronomical Twilight 5:40 AM CET 6:09 PM CET
Moon 10:02 PM CET (12/4) 11:02 AM CET (12/4)
Length of Visible Light 10h 04m
Length of Day
8h 58m
Waning Gibbous, 72% of the Moon is Illuminated
Dec 4
Waning Gibbous
Dec 6
Last Quarter
Dec 13
New
Dec 20
First Quarter
Dec 28
Full

Hourly Weather History & Observations

Time (CET) Temp. Windchill Dew Point Humidity Pressure Visibility Wind Dir Wind Speed Gust Speed Precip Events Conditions
12:00 AM 32.0 °F 27.5 °F 24.8 °F 75% 29.92 in - ENE 4.6 mph - N/A   Clear
12:30 AM 28.4 °F 24.6 °F 21.2 °F 74% 29.92 in - Variable 3.5 mph - N/A   Clear
1:00 AM 31 °F - 23 °F 61% 29.93 in 25 mi East 4.5 mph - -  
1:00 AM 32.0 °F 26.4 °F 23.0 °F 69% 29.89 in - East 5.8 mph - N/A   Clear
1:30 AM 32.0 °F 26.4 °F 24.8 °F 75% 29.89 in - East 5.8 mph - N/A   Clear
2:00 AM 32.0 °F 27.5 °F 26.6 °F 80% 29.89 in - East 4.6 mph - N/A   Clear
2:30 AM 33.8 °F 28.6 °F 28.4 °F 81% 29.89 in - East 5.8 mph - N/A   Clear
3:00 AM 30.2 °F 24.3 °F 24.8 °F 80% 29.86 in - East 5.8 mph - N/A   Clear
3:30 AM 37.4 °F 32.8 °F 28.4 °F 70% 29.83 in - East 5.8 mph - N/A   Clear
4:00 AM 38 °F - 28 °F 58% 29.87 in 25 mi East 4.5 mph - -  
4:00 AM 37.4 °F 33.8 °F 28.4 °F 70% 29.83 in - East 4.6 mph - N/A   Clear
4:30 AM 39.2 °F 35.0 °F 30.2 °F 70% 29.83 in - East 5.8 mph - N/A   Clear
5:00 AM 42 °F - 33 °F 60% 29.83 in 25 mi East 6.7 mph - -  
5:00 AM 42.8 °F 39.3 °F 32.0 °F 66% 29.80 in - East 5.8 mph - N/A   Clear
5:30 AM 42.8 °F 39.3 °F 32.0 °F 66% 29.80 in - East 5.8 mph - N/A   Clear
6:00 AM 43 °F - 33 °F 57% 29.80 in 25 mi East 6.7 mph - -   Partly Cloudy
6:00 AM 42.8 °F 39.3 °F 33.8 °F 70% 29.77 in - East 5.8 mph - N/A   Clear
6:30 AM 44.6 °F 41.4 °F 33.8 °F 66% 29.77 in - East 5.8 mph - N/A   Clear
7:00 AM 44 °F - 33 °F 54% 29.78 in 25 mi East 6.7 mph - -   Mostly Cloudy
7:00 AM 44.6 °F 41.4 °F 33.8 °F 66% 29.77 in - East 5.8 mph - N/A   Clear
7:30 AM 44.6 °F 41.4 °F 33.8 °F 66% 29.74 in - East 5.8 mph - N/A   Clear
8:00 AM 45 °F - 35 °F 58% 29.75 in 25 mi ESE 4.5 mph - -   Scattered Clouds
8:00 AM 44.6 °F 42.2 °F 35.6 °F 71% 29.74 in 6.2 mi ESE 4.6 mph - N/A   Partly Cloudy
8:30 AM 46.4 °F 44.3 °F 37.4 °F 71% 29.71 in 6.2 mi SE 4.6 mph - N/A   Scattered Clouds
9:00 AM 49 °F - 39 °F 58% 29.73 in 25 mi ESE 4.5 mph - -   Partly Cloudy
9:00 AM 48.2 °F - 39.2 °F 71% 29.71 in 6.2 mi SE 4.6 mph - N/A   Mostly Cloudy
9:30 AM 50.0 °F - 39.2 °F 66% 29.71 in 6.2 mi SSW 4.6 mph - N/A   Mostly Cloudy
10:00 AM 51 °F - 40 °F 55% 29.72 in 25 mi South 11.2 mph - - Rain Light Rain
10:00 AM 50.0 °F - 39.2 °F 66% 29.71 in 6.2 mi South 5.8 mph - N/A Rain Light Rain
10:30 AM 51.8 °F - 39.2 °F 62% 29.68 in 6.2 mi SSW 6.9 mph 18.4 mph N/A   Mostly Cloudy
11:00 AM 53 °F - 40 °F 50% 29.69 in 25 mi SSW 11.2 mph - - Rain Light Rain
11:00 AM 51.8 °F - 39.2 °F 62% 29.68 in 6.2 mi SSW 10.4 mph - N/A   Mostly Cloudy
11:30 AM 53.6 °F - 41.0 °F 62% 29.65 in 6.2 mi SSW 9.2 mph - N/A   Mostly Cloudy
12:00 PM 53 °F - 42 °F 57% 29.64 in 25 mi SSW 17.9 mph - -   Overcast
12:00 PM 53.6 °F - 42.8 °F 67% 29.62 in 6.2 mi SSW 12.7 mph - N/A   Mostly Cloudy
12:30 PM 51.8 °F - 42.8 °F 71% 29.62 in 6.2 mi SW 10.4 mph 21.9 mph N/A   Mostly Cloudy
1:00 PM 51 °F - 44 °F 70% 29.61 in 19 mi SSW 8.9 mph - - Rain Light Rain
1:00 PM 50.0 °F - 44.6 °F 82% 29.59 in 6.2 mi SSW 9.2 mph - N/A Rain Light Rain
1:30 PM 50.0 °F - 44.6 °F 82% 29.59 in 6.2 mi SSW 9.2 mph - N/A Rain Rain
2:00 PM 49 °F - 45 °F 82% 29.58 in 0 mi SW 6.7 mph - - Rain Rain
2:00 PM 48.2 °F - 44.6 °F 87% 29.56 in 6.2 mi SW 4.6 mph - N/A Rain Rain
2:30 PM 48.2 °F - 46.4 °F 93% 29.56 in 5.0 mi SSW 4.6 mph - N/A Rain Rain
3:00 PM 49 °F - 46 °F 86% 29.55 in 4 mi SW 6.7 mph - - Rain Heavy Rain
3:00 PM 48.2 °F - 46.4 °F 93% 29.53 in 3.7 mi SSW 4.6 mph - N/A Rain Heavy Rain
3:30 PM 50.0 °F - 46.4 °F 87% 29.50 in 6.2 mi SW 4.6 mph - N/A Rain Light Rain
4:00 PM 49 °F - 47 °F 90% 29.52 in 5 mi SSW 6.7 mph - - Rain Rain
4:00 PM 50.0 °F - 46.4 °F 87% 29.50 in 5.0 mi SSW 6.9 mph - N/A Rain Rain
4:30 PM 50.0 °F - 48.2 °F 94% 29.47 in 4.3 mi West 8.1 mph - N/A Rain Heavy Rain
5:00 PM 50 °F - 48 °F 89% 29.49 in 4 mi SSW 8.9 mph - - Rain Rain
5:00 PM 50.0 °F - 48.2 °F 94% 29.47 in 4.3 mi SSW 6.9 mph - N/A Rain Rain
5:30 PM 50.0 °F - 46.4 °F 87% 29.47 in 3.7 mi West 8.1 mph - N/A Rain Rain
6:00 PM 48 °F - 46 °F 91% 29.48 in 7 mi West 13.4 mph - - Rain Light Rain
6:00 PM 48.2 °F - 46.4 °F 93% 29.47 in 6.2 mi West 12.7 mph - N/A Rain Light Rain
6:30 PM 48.2 °F - 46.4 °F 93% 29.47 in 6.2 mi WNW 10.4 mph - N/A Rain Light Rain
7:00 PM 46.4 °F 41.1 °F 44.6 °F 93% 29.47 in 6.2 mi NNW 11.5 mph - N/A Rain Light Rain
7:30 PM 46.4 °F 41.1 °F 42.8 °F 87% 29.47 in 6.2 mi NW 11.5 mph - N/A Rain Light Rain
8:00 PM 44.6 °F 38.4 °F 42.8 °F 93% 29.47 in 6.2 mi NW 12.7 mph - N/A Rain Light Rain
8:30 PM 44.6 °F 38.8 °F 41.0 °F 87% 29.50 in 6.2 mi NW 11.5 mph - N/A Rain Light Rain
9:00 PM 42.8 °F 36.6 °F 41.0 °F 93% 29.50 in 6.2 mi NW 11.5 mph - N/A Rain Light Rain
9:30 PM 42.8 °F 38.0 °F 41.0 °F 93% 29.50 in 6.2 mi NW 8.1 mph - N/A Rain Light Rain
10:00 PM 42 °F - 39 °F 87% 29.53 in 12 mi Calm Calm - - Rain Light Rain
10:00 PM 42.8 °F 40.1 °F 39.2 °F 87% 29.50 in 6.2 mi West 4.6 mph - N/A   Scattered Clouds
10:30 PM 41.0 °F 38.0 °F 39.2 °F 93% 29.53 in 6.2 mi NNW 4.6 mph - N/A   Partly Cloudy
11:00 PM 41.0 °F 37.1 °F 39.2 °F 93% 29.53 in 6.2 mi NNE 5.8 mph - N/A   Scattered Clouds
11:30 PM 42.8 °F 37.0 °F 39.2 °F 87% 29.53 in 6.2 mi NNE 10.4 mph - N/A   Mostly Cloudy